Other Surface Observations
Issued by NWS

Home | Current Version | Previous Version | Text Only | Print | Product List | Glossary On
Versions: 1 2 3 4 5 6 7 8 9 10 11 12 13 14 15 16 17 18 19 20 21 22 23 24 25 26 27 28 29 30 31 32 33 34 35 36 37 38 39 40 41 42 43 44 45 46 47 48 49 50
000
SXUS52 KTAE 192019
OSOTAE
OSOTAE
North Florida/South Alabama/Southwest Georgia Weather Roundup
National Weather Service Tallahassee Florida
400 PM EDT SAT AUG 19 2017

Note: "fair" indicates few or no clouds below 12,000 feet with no
significant weather and/or obstructions to visibility.

!FLZ017-115-028-034-025-192100
...North Florida...

CITY           SKY/WX    TMP DP  RH WIND       PRES   REMARKS
TALLAHASSEE    PTSUNNY   88  75  65 SW5       29.95F HX  97
APALACHICOLA   CLOUDY    87  77  72 S7        29.96F HX  99
PERRY          SUNNY     91  73  54 CALM      29.96F HX  99
CROSS CITY     PTSUNNY   92  72  52 NW6       30.00S HX 100
JACKSONVILLE   TSTM      82  77  84 SW13G21   29.94R HX  90
$$

!FLZ112-006-005-002-011-192100
...Florida Panhandle...

CITY           SKY/WX    TMP DP  RH WIND       PRES   REMARKS
MARIANNA       MOSUNNY   95  66  38 MISG      29.95F HX  98
BONIFAY        NOT AVBL
PANAMA CITY NW FAIR      88  78  72 S12       29.95S HX 101
TYNDALL AFB    CLOUDY    89  76  65 S12       29.96F HX 101
TYND DRONE APT FAIR      88  77  69 SW10      29.96F HX 100
DE FUNIAK SPR  FAIR      92  69  45 NE5       29.97S HX  97
EGLIN AFB      PTSUNNY   90  75  61 S13       29.95F HX 101
DESTIN         SUNNY     93  75  55 VRB6      29.95F HX 104
HURLBURT       SUNNY     90  72  55 S12       29.94F HX  97
CRESTVIEW      MOSUNNY   97  68  38 VRB6      29.97F HX 102
PENSACOLA      SUNNY     97  72  44 VRB5      29.95F HX 105
$$

!ALZ063-066-192100
...South Alabama...

CITY           SKY/WX    TMP DP  RH WIND       PRES   REMARKS
DOTHAN         SUNNY     93  69  45 NW7       30.00F HX  98
OZARK CAIRNS   SUNNY     92  68  45 NE5       29.96F HX  96
FT RUCKER HELI MOSUNNY   91  69  48 NE5       29.96F HX  96
RUCKER HELI 3  FAIR      91  68  47 NE6       29.97F HX  94
RUCKER HELI 2  FAIR      93  68  44 N5        29.96F HX  97
FLORALA APT      N/A    N/A N/A N/A MISG      29.98F
ANDALUSIA      MOSUNNY   96  69  41 NE7       29.96F HX 102
TROY           MOSUNNY   91  70  49 E5        29.98F HX  96
EUFALA         FAIR      94  70  45 CALM      29.96F HX 100
MOBILE         PTSUNNY   83  76  79 W7        29.99R THUNDER HX  91
$$

!GAZ120>161-192100
...Southwest and South Central Georgia...

CITY           SKY/WX    TMP DP  RH WIND       PRES   REMARKS
THOMASVILLE    FAIR      95  63  34 NW5       29.96F HX  96
BAINBRIDGE     MOSUNNY   95  73  49 CALM      29.96F HX 105
MOODY AFB      MOSUNNY   92  67  43 NW7       29.94F HX  96
VALDOSTA       CLOUDY    91  74  57 VRB5      29.94F HX 100
MOULTRIE       SUNNY     91  63  38 NW5       29.96F HX  92
BLAKELY        MOSUNNY   95  68  41 N5        29.96F HX  99
ALBANY         SUNNY     95  68  41 CALM      29.97F HX  99
TIFTON         FAIR      92  64  39 CALM      29.95F HX  93
FITZGERALD     FAIR      95  70  43 N5        29.98F HX 101
CORDELE        FAIR      97  64  34 N6        29.97F HX  99
AMERICUS       FAIR      93  59  31 W3        29.98F HX  92
HOMERVILLE     FAIR      90  68  48 W5        29.95F HX  93
$$

!GMZ750-755-770-775-192100
...Coastal and Buoy Obs...

STATION/POSITION TIME  TEMP    WIND        PRES    VSBY  WAVE
                       AIR SEA DIR/SP/G                  HT/PER
                 (UTC) (F)     (DEG/KT/KT) (MB)    (MI)  (FT/S)
KEATON BEACH     2000   84     260/  9/ 10 1014.5F
CEDAR KEY        2000   87     230/  5/  7 1014.9F
C TOWER          2000   86                 1015.3F
APALACHICOLA BUO 1950   84 86  260/  8/ 10 1015.1F         1/ 4
PANAMA CITY BUOY 1950   84 86  240/  6/  8 1015.1F         2/ 5
MOBILE BUOY      2000   85 88  360/  2/  4 1015.2
ORANGE BCH AL BU 1950   86 89  140/  6/  8 1014.4F         1
$$




USA.gov is the U.S. government's official web portal to all federal, state and local government web resources and services.